Location: Canyon Rim
(40.8777°N, 111.8641°W)
Time: 08:29:12
(UTC+00:00)

X-37B - Pass Details

Date: 21 April 2021
Orbit: 386 x 389 km, 45.0° (Epoch: 08 May)

Event Time Altitude Azimuth Distance (km) Brightness Sun altitude
Exits shadow 09:42:27 13° 66° (ENE) 1,245 3.8 -28.5°
Drops below altitude 10° 09:42:52 10° 67° (ENE) 1,415 4.2 -28.4°
Sets 09:44:57 0° 69° (ENE) 2,270 5.4 -28.2°
